{"data":{"norad_id":58500,"intl_designator":"2023-188A","name":"DOORY-SAT","alt_names":[],"object_type":"PAYLOAD","status":"ACTIVE","operator":null,"country":"SKOR","launch_date":"2023-12-04","launch_site_code":"JJSLA","launch_vehicle":null,"mission":null,"orbit_class":"UNKNOWN","rcs_meters":null,"size_class":null,"mass_kg":null,"dimensions":null,"purposes":[],"wikipedia_slug":null,"has_3d_model":false,"image_url":null,"decayed_at":null,"tle_current":{"epoch":"2026-05-25T04:03:31.715712Z","epoch_age_seconds":56607,"freshness":"FRESH","line1":"1 58500U 23188A   26145.16911708  .00000915  00000+0  14457-3 0  9999","line2":"2 58500  46.9822  47.4991 0008960 287.4594  72.5321 14.80556506133587","mean_motion":14.80556506,"eccentricity":0.000896,"inclination_deg":46.9822,"raan_deg":47.4991,"arg_perigee_deg":287.4594,"mean_anomaly_deg":72.5321,"bstar":0.00014457,"rev_number":13358,"period_min":97.260725555854,"perigee_km":621.29095427278,"apogee_km":633.84517775107,"semimajor_km":7005.7050660119,"source":"CELESTRAK","updated_at":"2026-05-25T13:38:00.794265Z"}}}